Regional Weather Roundup
Issued by NWS

Home | Current Version | Previous Version | Graphics & Text | Print | Product List | Glossary On
Versions: 1 2 3 4 5 6 7 8 9 10 11 12 13 14 15 16 17 18 19 20 21 22 23 24 25 26 27 28 29 30 31 32 33 34 35 36 37 38 39 40 41 42 43 44 45 46 47 48 49 50
215
ASUS43 KMPX 191001
RWRMN
WEATHER ROUNDUP FOR MINNESOTA
NATIONAL WEATHER SERVICE TWIN CITIES/CHANHASSEN MN
400 AM CST THU JAN 19 2017


NOTE: "FAIR" INDICATES FEW OR NO CLOUDS BELOW 12,000 FEET WITH NO
SIGNIFICANT WEATHER AND/OR OBSTRUCTIONS TO VISIBILITY. N/A MEANS
CURRENT SKY AND/OR WEATHER CONDITIONS ARE NOT AVAILABLE.

MNZ060>063-068>070-191100-
   Twin Cities Metro

CITY           SKY/WX    TMP DP  RH WIND       PRES   REMARKS
TWIN CITIES    CLEAR     31  29  92 SE7       29.82S WCI  24
ST PAUL        CLEAR     30  30 100 SE6       29.84S FOG     WCI  24
CRYSTAL        CLEAR     31  28  89 S7        29.79F WCI  24
BLAINE         CLOUDY    34  34 100 S9        29.80S WCI  26
LAKEVILLE      CLEAR     34  34 100 S9        29.82S WCI  26
EDEN PRAIRIE   CLEAR     36  32  85 S13       29.79F
SOUTH ST PAUL  CLEAR     31  31  99 S5        29.83S FOG     WCI  26
LAKE ELMO      FAIR      32  32 100 S7        29.83F WCI  26
$$
MNZ001>005-007-008-013>017-022>024-027-028-191100-
   Northwest Minnesota

CITY           SKY/WX    TMP DP  RH WIND       PRES   REMARKS
BEMIDJI        CLOUDY    21  19  92 SE6       29.66S WCI  14
HALLOCK        CLOUDY    25  21  86 S16       29.58F WCI  12
ROSEAU         CLOUDY    32  25  74 S15       29.60R WCI  22
WARROAD        CLOUDY    34  25  69 SW7       29.61R WCI  28
THIEF RVR FALL CLOUDY    26  21  81 S7        29.64R WCI  18
CROOKSTON      CLOUDY    28  25  86 S14       29.65R WCI  17
FOSSTON        CLOUDY    25  19  80 S10       29.64F WCI  15
DETROIT LAKES  FOG       28  28 100 S12       29.67S VSB 3/4 WCI  18
MOORHEAD       FOG       27  25  93 S14       29.66S VSB 3/4 WCI  15
PARK RAPIDS    FOG       28  25  88 S9        29.68S VSB 1/4 WCI  19
MAHNOMEN       FAIR      28  26  89 S5        29.64F WCI  23
$$
MNZ006-009>011-018-025>026-191100-
   North Central Minnesota

CITY           SKY/WX    TMP DP  RH WIND       PRES   REMARKS
BAUDETTE       CLOUDY    26  20  77 SE7       29.63S WCI  18
FLAG ISLAND    CLOUDY    21  18  86 S9        29.60R WCI  11
INTL FALLS     CLOUDY    21  18  88 SE3       29.67F
WASKISH        CLOUDY    28  25  86 S6        29.66S WCI  22
BIG FORK       CLOUDY    30  27  86 CALM      29.69R
LONGVILLE      FOG       30  28  93 S7        29.70S VSB 1/2 WCI  23
GRAND RAPIDS   FOG       29  29 100 S13       29.73S VSB 1/2 WCI  19
CRANE LAKE     CLOUDY    14  12  92 CALM      29.72F
ORR            CLOUDY    28  25  86 S8        29.67F WCI  20
COOK           CLOUDY    27  25  93 CALM      29.71S
WALKER         CLOUDY    27  27  97 SE3       29.68S FOG
$$
MNZ012-019>021-037-191100-
   Northeast Minnesota

CITY           SKY/WX    TMP DP  RH WIND       PRES   REMARKS
DULUTH         FOG       33  33 100 SW10      29.75F VSB 1/4 WCI  25
ELY            CLOUDY    21  21 100 SE5       29.72F FOG     WCI  15
HIBBING        FOG       27  27 100 S6        29.72S VSB 1/2 WCI  20
EVELETH        CLOUDY    22  21  95 CALM      29.75R FOG
DULUTH HARBOR  CLOUDY    34  30  86 CALM      29.80S FOG
TWO HARBORS    HAZE      30  27  86 CALM      29.76S VSB<1/4
SILVER BAY     CLOUDY    25  25 100 CALM      29.77S
G MARAIS ARPRT FOG       28  25  86 CALM      29.77F VSB<1/4
$$
MNZ029>031-032-039>041-046>048-054>057-064-191100-
   West Central Minnesota

CITY           SKY/WX    TMP DP  RH WIND       PRES   REMARKS
FERGUS FALLS   FOG       30  30 100 SE10      29.71F VSB 1/4 WCI  21
WHEATON        CLOUDY    28  28 100 SE8       29.69S FOG     WCI  20
MORRIS         MIX PCPN  28  28 100 SE8       29.69S VSB<1/4 WCI  20
ALEXANDRIA     FOG       32  32 100 S10       29.71S VSB 1/4 WCI  24
ELBOW LAKE     SNOW      29  29 100 E8        29.69S VSB 1/4 WCI  21
WADENA         MIX PCPN  28  28 100 S6        29.69S VSB 1/4 WCI  22
GLENWOOD       FOG       27  27 100 S7        29.72S VSB<1/4 WCI  19
APPLETON       FOG       27  27 100 SE3       29.70F VSB 1/2
ORTONVILLE     PTCLDY    21  19  93 CALM      29.68F FOG
MADISON        CLOUDY    32  32 100 S7        29.69F WCI  26
WILLMAR        FOG       25  25 100 CALM      29.75S VSB 1
$$
MNZ033>034-036-042>043-049>051-058-059-191100-
   Central Minnesota

CITY           SKY/WX    TMP DP  RH WIND       PRES   REMARKS
ST CLOUD       FOG       26  26 100 SE5       29.76F VSB 1/4 WCI  20
SAUK CENTRE    FOG       28  28 100 SE6       29.73S VSB 1/4 WCI  22
PAYNESVILLE    CLOUDY    30  30 100 S7        29.74F FOG     WCI  23
AITKIN         FOG       36  30  80 S7        29.73S VSB 1/2
PINE RIVER     MIX PCPN  30  30 100 S5        29.75S VSB 1/4 WCI  25
BRAINERD       FOG       32  32 100 S7        29.73S VSB 1/4 WCI  26
STAPLES        SNOW      30  30 100 S7        29.71S VSB 1/4 WCI  23
LONG PRAIRIE   SNOW      32  32 100 SE5       29.72F VSB 1/2 WCI  27
LITTLE FALLS   FOG       32  32 100 S7        29.74S VSB 1/4 WCI  26
LITCHFIELD     CLOUDY    32  32 100 CALM      29.76S FOG
BUFFALO        CLOUDY    32  31  97 S5        29.79S WCI  27
MAPLE LAKE     CLOUDY    32  32 100 S5        29.77F FOG     WCI  27
HUTCHINSON     CLOUDY    30  29  99 SE3       29.78F FOG
$$
MNZ037-044-045-052-053-191100-
   East Central Minnesota

CITY           SKY/WX    TMP DP  RH WIND       PRES   REMARKS
PRINCETON      FOG       28  28 100 SE3       29.77F VSB 1/4
MORA           FOG       30  30 100 CALM      29.80S VSB 1/4
CAMBRIDGE      CLOUDY    32  28  86 CALM      29.77S FOG
RUSH CITY      CLOUDY    28  28 100 S7        29.79F FOG     WCI  21
MOOSE LAKE     FOG       32  32 100 S7        29.76S VSB 1/2 WCI  26
HINCKLEY       CLOUDY    30  30 100 S3        29.79S FOG
CLOQUET        FOG       34  32  93 S8        29.75F VSB 1/4 WCI  27
MCGREGOR       CLOUDY    32  32 100 S8        29.75S VSB 1/2 WCI  25
$$
MNZ071>073-080-081-089-090-097-098-191100-
   Southwest Minnesota

CITY           SKY/WX    TMP DP  RH WIND       PRES   REMARKS
MONTEVIDEO     FOG       28  28 100 S5        29.73S VSB 1/2 WCI  23
GRANITE FALLS  CLOUDY    30  29  96 S9        29.74S WCI  22
CANBY          CLEAR     41  36  83 SW9       29.69F
MARSHALL       CLEAR     38  33  82 S13G22    29.71F
REDWOOD FALLS  CLEAR     35  31  85 S13       29.75S WCI  26
OLIVIA         CLOUDY    32  30  93 S7        29.74F WCI  26
PIPESTONE      CLEAR     36  34  93 S10       29.72F
WINDOM           N/A     36  34  93 S10       29.77S
WORTHINGTON    CLEAR     36  32  85 S16       29.76F
JACKSON        CLEAR     32  32 100 S12       29.79S WCI  23
TRACY          CLEAR     40  35  83 SW20G26   29.73S
SLAYTON        CLEAR     36  33  89 S17       29.74F
$$
MNZ065>067-074>077-082>085-091>093-191100-
   South Central Minnesota

CITY           SKY/WX    TMP DP  RH WIND       PRES   REMARKS
MANKATO        CLEAR     34  32  92 S9        29.82  WCI  27
NEW ULM        CLEAR     34  32  93 S9        29.78S WCI  26
ST JAMES       CLEAR     34  32  93 S9        29.81R WCI  26
FAIRMONT       CLEAR     34  32  92 S13       29.81F WCI  25
GLENCOE        CLEAR     35  35  97 S7        29.77F WCI  30
FARIBAULT      CLEAR     34  30  86 S8        29.84S WCI  27
OWATONNA       CLEAR     34  30  86 S10       29.84S WCI  26
WASECA         CLEAR     34  32  93 S13       29.84F WCI  25
ALBERT LEA     CLEAR     34  32  93 S7        29.85S FOG     WCI  28
$$
MNZ078>079-086>088-094>096-191100-
   Southeast Minnesota

CITY           SKY/WX    TMP DP  RH WIND       PRES   REMARKS
ROCHESTER      CLEAR     30  29  96 S14       29.86F WCI  19
RED WING       CLEAR     32  30  93 SE3       29.86S
STANTON        CLEAR     35  31  87 S6        29.83S WCI  30
DODGE CENTER   CLEAR     32  30  93 S16       29.84F WCI  21
WINONA         CLEAR     34  32  93 SE7       29.90F WCI  28
AUSTIN         CLOUDY    30  28  93 S9        29.87F FOG     WCI  22
PRESTON        PTCLDY    31  29  94 S15       29.89R FOG     WCI  20
$$
ABBREVIATIONS USED IN REMARKS
   TC - TEMPERATURES IN CELSIUS
  WCI - WIND CHILL INDEX
   HX - HEAT INDEX
  VSB - VISIBILITY
$$




USA.gov is the U.S. government's official web portal to all federal, state and local government web resources and services.